Location: Unspecified
(0.0000°N, 0.0000°E)
Time: 00:23:56
(UTC+00:00)

Envisat - Visible Passes

Search period start: 26 January 2021 00:00
Search period end: 05 February 2021 00:00
Orbit: 764 x 766 km, 98.1° (Epoch: 25 January)

Date Brightness Start Highest point End Pass type
(mag) Time Alt. Az. Time Alt. Az. Time Alt. Az.
26 Jan 6.2 04:15:34 10° E 04:17:18 12° ESE 04:19:03 10° ESE visible
27 Jan 3.3 05:14:16 10° NNE 05:19:18 72° ESE 05:24:23 10° S visible
28 Jan 5.3 04:38:30 10° NE 04:42:36 25° ESE 04:46:42 10° SSE visible
29 Jan 3.1 05:39:43 10° N 05:44:38 54° WNW 05:49:36 10° SSW visible
30 Jan 3.9 05:03:01 10° NNE 05:07:55 52° ESE 05:12:51 10° S visible
31 Jan 5.8 04:27:48 10° ENE 04:31:14 18° ESE 04:34:39 10° SE visible
31 Jan 6.8 18:40:42 10° WSW 18:41:01 10° WSW 18:41:20 10° W visible
01 Feb 2.9 05:28:12 10° N 05:33:15 75° WNW 05:38:20 10° SSW visible
02 Feb 4.5 04:51:53 10° NE 04:56:32 38° ESE 05:01:13 10° S visible
03 Feb 6.1 04:17:31 10° ENE 04:19:52 13° ESE 04:22:12 10° SE visible
04 Feb 3.1 05:16:48 10° NNE 05:21:52 80° ESE 05:26:57 10° S visible
